This demonstration page uses our WeatherBlox Daily Observations layout. Learn more.

Left ArrowRight Arrow

39.12711, -84.51439

Hourly Observations for October 14, 2020

Temp ( °F °C ) Dew Point ( °F °C ) Humidity (%) Winds ( mph kmh ) Pressure ( in mb ) Visibility ( mi km ) Precip ( " mm )
12:53 am 00:53 Clear 46 7.8 44 6.7 93 93 Calm 30.07 1018 10 16 0.00 0.00
1:53 am 01:53 Clear 44 6.7 42 5.6 93 93 Calm 30.07 1018 10 16 0.00 0.00
2:53 am 02:53 Clear 43 6.1 42 5.6 97 97 Calm 30.08 1019 9 14 0.00 0.00
3:53 am 03:53 Clear 43 6.1 43 6.1 100 100 Calm 30.08 1019 10 16 0.00 0.00
4:53 am 04:53 Clear with Mist and Fog 44 6.7 43 6.1 96 96 Calm 30.08 1019 5 8 0.00 0.00
4:56 am 04:56 Mostly Clear with Mist and Fog 44 6.7 43 6.1 96 96 Calm 30.09 1019 1 2 0.00 0.00
5:01 am 05:01 Mostly Cloudy with Fog 40 4.4 40 4.4 100 100 Calm 30.10 1019 0 0 0.00 0.00
5:09 am 05:09 Mostly Clear with Mist and Fog 40 4.4 39 3.9 97 97 Calm 30.10 1019 1 2 0.00 0.00
5:11 am 05:11 Mostly Clear with Mist and Fog 41 5 39 3.9 93 93 Calm 30.09 1019 5 8 0.00 0.00
5:15 am 05:15 Mostly Clear with Mist and Fog 42 5.6 40 4.4 92 92 Calm 30.09 1019 2 3 0.00 0.00
5:18 am 05:18 Mostly Cloudy with Mist and Fog 42 5.6 40 4.4 92 92 Calm 30.09 1019 1 1 0.00 0.00
5:26 am 05:26 Mostly Clear with Mist and Fog 42 5.6 41 5 96 96 Calm 30.10 1019 1 2 0.00 0.00
5:34 am 05:34 Mostly Clear 42 5.6 41 5 96 96 Calm 30.10 1019 9 14 0.00 0.00
5:53 am 05:53 Clear with Mist and Fog 42 5.6 41 5 96 96 Calm 30.08 1019 3 5 0.00 0.00
6:18 am 06:18 Clear with Mist and Fog 43 6.1 41 5 93 93 Calm 30.11 1019 2 3 0.00 0.00
6:27 am 06:27 Clear with Mist and Fog 43 6.1 42 5.6 97 97 Calm 30.11 1019 3 5 0.00 0.00
6:41 am 06:41 Clear with Mist and Fog 43 6.1 42 5.6 97 97 Calm 30.11 1019 2 3 0.00 0.00
6:51 am 06:51 Clear with Mist and Fog 43 6 39 4 87 87 Calm 30.11 1019 1 1 0.00 0.00
6:53 am 06:53 Clear with Mist and Fog 42 5.6 41 5 96 96 Calm 30.09 1019 1 1 0.00 0.00
6:59 am 06:59 Clear with Mist and Fog 42 5.6 40 4.4 92 92 Calm 30.12 1020 3 4 0.00 0.00
7:06 am 07:06 Clear with Mist and Fog 42 5.6 41 5 96 96 Calm 30.12 1020 5 8 0.00 0.00
7:53 am 07:53 Sunny 41 5 40 4.4 96 96 Calm 30.11 1020 8 13 0.00 0.00
7:57 am 07:57 Sunny with Mist and Fog 41 5 40 4.4 96 96 Calm 30.12 1020 2 3 0.00 0.00
8:02 am 08:02 Mostly Cloudy with Mist and Fog 41 5 40 4.4 96 96 Calm 30.12 1020 1 1 0.00 0.00
8:09 am 08:09 Sunny 42 5.6 41 5 96 96 Calm 30.12 1020 9 14 0.00 0.00
8:50 am 08:50 Partly Cloudy with Mist and Fog 46 8 45 7 93 93 Calm 30.11 1020 5 8 0.00 0.00
8:53 am 08:53 Partly Cloudy with Mist and Fog 47 8.3 46 7.8 97 97 Calm 30.10 1019 5 8 0.00 0.00
9:53 am 09:53 Sunny 52 11.1 47 8.3 83 83 SW 3 6 30.10 1019 10 16 0.00 0.00
10:53 am 10:53 Sunny 58 14.4 46 7.8 65 65 S 3 6 30.09 1019 10 16 0.00 0.00
11:53 am 11:53 Sunny 65 18.3 45 7.2 49 49 Calm 30.06 1018 10 16 0.00 0.00
12:53 pm 12:53 Sunny 69 20.6 46 7.8 44 44 SSW 8 13 30.04 1017 10 16 0.00 0.00
1:53 pm 13:53 Sunny 73 22.8 45 7.2 37 37 S 12 19 30.00 1016 10 16 0.00 0.00
2:53 pm 14:53 Sunny 76 24.4 46 7.8 35 35 S 10 17 29.95 1014 10 16 0.00 0.00
3:53 pm 15:53 Sunny 77 25 45 7.2 32 32 S 12 19 29.91 1013 10 16 0.00 0.00
4:53 pm 16:53 Sunny 76 24.4 43 6.1 31 31 S 15 24 29.87 1012 10 16 0.00 0.00
5:53 pm 17:53 Sunny 75 23.9 44 6.7 33 33 S 13 20 29.86 1011 10 16 0.00 0.00
6:53 pm 18:53 Sunny 70 21.1 44 6.7 39 39 S 7 11 29.85 1011 10 16 0.00 0.00
7:53 pm 19:53 Clear 65 18.3 45 7.2 49 49 S 6 9 29.85 1011 10 16 0.00 0.00
8:53 pm 20:53 Clear 62 16.7 45 7.2 54 54 SSW 7 11 29.83 1010 10 16 0.00 0.00
9:53 pm 21:53 Clear 61 16.1 45 7.2 56 56 SSW 7 11 29.81 1010 10 16 0.00 0.00
10:53 pm 22:53 Clear 64 17.8 46 7.8 52 52 SSW 10 17 29.80 1009 10 16 0.00 0.00
11:53 pm 23:53 Clear 63 17.2 46 7.8 54 54 SSW 10 17 29.79 1009 10 16 0.00 0.00

Powered by AerisWeather